Location: Hylvaty SDH
(49.9612°N, 16.4057°E)
Time: 12:09:41
(UTC+01:00)

Tiros 1 - Pass Details

Date: 06 October 2020
Orbit: 630 x 663 km, 48.4° (Epoch: 28 October)

Event Time Altitude Azimuth Distance (km) Brightness Sun altitude
Rises 15:19:18 0° 265° (W) 2,945 11.3 25.1°
Reaches altitude 10° 15:21:38 10° 264° (W) 2,041 10.6 24.8°
Maximum altitude 15:26:19 75° 180° (S) 676 7.9 24.3°
Drops below altitude 10° 15:31:04 10° 95° (E) 2,063 9.4 23.7°
Sets 15:33:26 0° 94° (E) 2,979 10.2 23.4°
